GW2619 Weather Reports


Display with metric or nautical units.
time (UTC)temp
F
wind
direction
speed
MPH
gust
MPH
rain 1hr
in
rain 24hr
in
rain mn
in
humidity
%
barometer
mb
20260505020008 57 240 5.0 10.0 0.00 0.00 0.00 83 1014.1
20260505014510 57 254 8.0 11.0 0.00 0.00 0.00 83 1014.2
20260505011505 58 278 6.0 12.0 0.00 0.00 0.00 81 1014.3
20260505010008 58 234 6.0 10.0 0.00 0.00 0.00 81 1014.2
20260505004503 58 264 5.0 12.0 0.00 0.00 0.00 80 1014.3
20260505003005 59 222 9.0 12.0 0.00 0.00 0.00 80 1014.3
20260505000006 59 250 5.0 12.0 0.00 0.00 0.00 80 1014.3
20260504234503 60 219 12.0 17.0 0.00 0.00 0.00 79 1014.3
20260504233006 60 217 11.0 15.0 0.00 0.00 0.00 79 1014.4
20260504231506 60 232 11.0 15.0 0.00 0.00 0.00 79 1014.3
20260504224503 60 263 6.0 11.0 0.00 0.00 0.00 78 1014.4
20260504221505 60 272 7.0 14.0 0.00 0.00 0.00 78 1014.4
20260504220008 61 222 8.0 14.0 0.00 0.00 0.00 79 1014.4
20260504214506 61 218 8.0 14.0 0.00 0.00 0.00 78 1014.5
20260504213004 61 268 7.0 14.0 0.00 0.00 0.00 76 1014.5
20260504211503 61 235 6.0 11.0 0.00 0.00 0.00 79 1014.5
20260504210009 61 225 6.0 11.0 0.00 0.00 0.00 78 1014.7
20260504204503 60 210 6.0 9.0 0.00 0.00 0.00 79 1014.9
20260504203003 60 145 3.0 9.0 0.00 0.00 0.00 80 1015.0
20260504201507 60 226 6.0 9.0 0.00 0.00 0.00 80 1015.2
20260504200006 59 188 4.0 9.0 0.00 0.00 0.00 81 1015.0
20260504194507 59 222 7.0 13.0 0.00 0.00 0.00 82 1015.1
20260504193004 59 209 5.0 7.0 0.00 0.00 0.00 81 1015.0
20260504191503 59 220 3.0 7.0 0.00 0.00 0.00 81 1015.1
20260504190006 58 153 2.0 8.0 0.00 0.00 0.00 82 1015.0
20260504184503 58 228 3.0 6.0 0.00 0.00 0.00 82 1015.0
20260504183003 58 212 3.0 6.0 0.00 0.00 0.00 82 1015.0
20260504181504 58 199 4.0 7.0 0.00 0.00 0.00 82 1014.8
20260504180005 58 185 3.0 7.0 0.00 0.00 0.00 83 1014.7
20260504174503 57 215 1.0 5.0 0.00 0.00 0.00 84 1014.6
20260504173003 57 215 4.0 7.0 0.00 0.00 0.00 84 1014.6
20260504171502 57 212 5.0 7.0 0.00 0.00 0.00 84 1014.7
20260504081504 55 354 3.0 4.0 0.00 0.00 0.00 88 1012.8
20260504050007 54 186 1.0 6.0 0.00 0.00 0.00 87 1011.2
20260504044505 55 204 5.0 10.0 0.00 0.00 0.00 86 1011.0
20260504043005 56 215 6.0 9.0 0.00 0.00 0.00 84 1010.8
20260504041505 58 227 7.0 11.0 0.00 0.00 0.00 82 1010.5
20260504040008 58 195 6.0 10.0 0.00 0.00 0.00 81 1010.2
20260504034506 59 214 5.0 10.0 0.00 0.00 0.00 81 1009.8
20260504033006 60 204 9.0 12.0 0.00 0.00 0.00 79 1009.7
20260504031503 62 226 7.0 16.0 0.00 0.00 0.00 77 1009.3
20260504023003 64 219 6.0 11.0 0.00 0.00 0.00 69 1008.7